When you browse on this site, cookies collect data to enhance your experience and personalize the content and advertising you see.
Visit our Privacy Policy to learn more. By continuing to use the site, you agree to this use of cookies and data.
  • In Hungary
  • List of Countries
  • For 7 days
  • Water Temperature
  • Satellite Maps
  • Weather Map
  • News
  • Weather Widgets
  • user-avatar
    Login

    Hourly Weather Savostyanovo

    Today, 27 May, Monday

    Time Temperature Precipitation Wind Pressure Humidity
    00:00 +10°C° 0 mm 2 mps 737 mmHg 91%
    01:00 +9°C° 0 mm 2 mps 738 mmHg 92%
    02:00 +9°C° 0 mm 2 mps 738 mmHg 92%
    03:00 +9°C° 0 mm 3 mps 738 mmHg 90%
    04:00 +9°C° 0 mm 3 mps 738 mmHg 89%
    05:00 +10°C° 0 mm 3 mps 739 mmHg 87%
    06:00 +12°C° 0 mm 3 mps 739 mmHg 79%
    07:00 +13°C° 0 mm 4 mps 739 mmHg 72%
    08:00 +15°C° 0 mm 4 mps 739 mmHg 64%
    09:00 +16°C° 0 mm 5 mps 739 mmHg 63%
    10:00 +17°C° 0 mm 5 mps 739 mmHg 61%
    11:00 +19°C° 0 mm 5 mps 740 mmHg 59%
    12:00 +19°C° 0.1 mm 5 mps 740 mmHg 60%
    13:00 +19°C° 0.1 mm 5 mps 740 mmHg 62%
    14:00 +20°C° 0.1 mm 5 mps 740 mmHg 63%
    15:00 +20°C° 0.1 mm 4 mps 740 mmHg 65%
    16:00 +20°C° 0.1 mm 4 mps 740 mmHg 67%
    17:00 +20°C° 0.1 mm 4 mps 740 mmHg 69%
    18:00 +19°C° 0.2 mm 3 mps 740 mmHg 76%
    19:00 +18°C° 0.2 mm 3 mps 741 mmHg 84%
    20:00 +16°C° 0.2 mm 2 mps 741 mmHg 92%
    21:00 +16°C° 0.1 mm 2 mps 741 mmHg 93%
    22:00 +15°C° 0.1 mm 2 mps 741 mmHg 94%
    23:00 +15°C° 0.1 mm 2 mps 741 mmHg 95%

    Tomorrow, 28 May, Tuesday

    Time Temperature Precipitation Wind Pressure Humidity
    00:00 +14°C° 0 mm 2 mps 741 mmHg 96%
    01:00 +14°C° 0 mm 2 mps 741 mmHg 96%
    02:00 +14°C° 0 mm 2 mps 742 mmHg 96%
    03:00 +14°C° 0 mm 2 mps 742 mmHg 96%
    04:00 +14°C° 0 mm 2 mps 742 mmHg 95%
    05:00 +15°C° 0 mm 2 mps 742 mmHg 94%
    06:00 +17°C° 0 mm 2 mps 742 mmHg 88%
    07:00 +19°C° 0 mm 2 mps 743 mmHg 81%
    08:00 +21°C° 0 mm 2 mps 743 mmHg 75%
    09:00 +22°C° 0 mm 3 mps 743 mmHg 69%
    10:00 +25°C° 0 mm 3 mps 743 mmHg 63%
    11:00 +26°C° 0 mm 4 mps 743 mmHg 56%
    12:00 +27°C° 0.1 mm 4 mps 743 mmHg 54%
    13:00 +27°C° 0.1 mm 4 mps 743 mmHg 53%
    14:00 +28°C° 0.1 mm 4 mps 743 mmHg 51%
    15:00 +27°C° 0.2 mm 3 mps 743 mmHg 60%
    16:00 +25°C° 0.2 mm 3 mps 743 mmHg 70%
    17:00 +24°C° 0.2 mm 2 mps 742 mmHg 80%
    18:00 +23°C° 0 mm 2 mps 743 mmHg 82%
    19:00 +21°C° 0 mm 3 mps 743 mmHg 85%
    20:00 +20°C° 0 mm 3 mps 743 mmHg 87%
    21:00 +19°C° 0 mm 3 mps 743 mmHg 87%
    22:00 +18°C° 0 mm 3 mps 743 mmHg 86%
    23:00 +18°C° 0 mm 3 mps 743 mmHg 86%

    Day after tomorrow, 29 May, Wednesday

    Time Temperature Precipitation Wind Pressure Humidity
    00:00 +17°C° 0 mm 3 mps 743 mmHg 88%
    01:00 +17°C° 0 mm 3 mps 743 mmHg 89%
    02:00 +17°C° 0 mm 3 mps 744 mmHg 91%
    03:00 +18°C° 0 mm 3 mps 744 mmHg 89%
    04:00 +18°C° 0 mm 3 mps 744 mmHg 88%
    05:00 +18°C° 0 mm 3 mps 744 mmHg 87%
    06:00 +20°C° 0 mm 4 mps 744 mmHg 79%
    07:00 +22°C° 0 mm 4 mps 744 mmHg 71%
    08:00 +25°C° 0 mm 5 mps 744 mmHg 63%
    09:00 +26°C° 0 mm 5 mps 744 mmHg 59%
    10:00 +27°C° 0 mm 5 mps 744 mmHg 56%
    11:00 +28°C° 0 mm 6 mps 744 mmHg 52%
    12:00 +28°C° 0 mm 6 mps 744 mmHg 51%
    13:00 +28°C° 0 mm 6 mps 744 mmHg 49%
    14:00 +29°C° 0 mm 6 mps 745 mmHg 47%
    15:00 +28°C° 0 mm 5 mps 744 mmHg 50%
    16:00 +28°C° 0 mm 4 mps 744 mmHg 53%
    17:00 +27°C° 0 mm 4 mps 744 mmHg 55%
    18:00 +25°C° 0 mm 3 mps 744 mmHg 63%
    19:00 +22°C° 0 mm 3 mps 744 mmHg 72%
    20:00 +20°C° 0 mm 2 mps 744 mmHg 80%
    21:00 +19°C° 0 mm 2 mps 744 mmHg 84%
    22:00 +18°C° 0 mm 2 mps 745 mmHg 88%
    23:00 +17°C° 0 mm 2 mps 745 mmHg 92%

    30 May, Thursday

    Time Temperature Precipitation Wind Pressure Humidity
    00:00 +17°C° 0 mm 2 mps 745 mmHg 93%
    01:00 +17°C° 0 mm 2 mps 745 mmHg 95%
    02:00 +17°C° 0 mm 2 mps 745 mmHg 96%
    03:00 +17°C° 0 mm 2 mps 745 mmHg 95%
    04:00 +18°C° 0 mm 2 mps 745 mmHg 94%
    05:00 +18°C° 0 mm 2 mps 745 mmHg 93%
    06:00 +20°C° 0 mm 2 mps 745 mmHg 85%
    07:00 +23°C° 0 mm 2 mps 745 mmHg 78%
    08:00 +25°C° 0 mm 3 mps 745 mmHg 70%
    09:00 +26°C° 0 mm 3 mps 745 mmHg 65%
    10:00 +27°C° 0 mm 4 mps 745 mmHg 59%
    11:00 +28°C° 0 mm 5 mps 745 mmHg 54%
    12:00 +28°C° 0.7 mm 5 mps 744 mmHg 57%
    13:00 +28°C° 0.7 mm 5 mps 744 mmHg 59%
    14:00 +28°C° 0.7 mm 4 mps 744 mmHg 62%
    15:00 +28°C° 0.1 mm 4 mps 744 mmHg 61%
    16:00 +28°C° 0.1 mm 4 mps 744 mmHg 60%
    17:00 +28°C° 0.1 mm 3 mps 743 mmHg 59%
    18:00 +25°C° 1.1 mm 3 mps 744 mmHg 69%
    19:00 +23°C° 1.1 mm 2 mps 744 mmHg 79%
    20:00 +21°C° 1.1 mm 1 mps 744 mmHg 90%
    21:00 +19°C° 0.3 mm 2 mps 744 mmHg 92%
    22:00 +19°C° 0.3 mm 2 mps 744 mmHg 94%
    23:00 +18°C° 0.3 mm 2 mps 744 mmHg 96%

    31 May, Friday

    Time Temperature Precipitation Wind Pressure Humidity
    00:00 +18°C° 0 mm 2 mps 744 mmHg 96%
    01:00 +17°C° 0 mm 2 mps 744 mmHg 97%
    02:00 +17°C° 0 mm 2 mps 744 mmHg 98%
    03:00 +18°C° 0 mm 2 mps 744 mmHg 97%
    04:00 +18°C° 0 mm 2 mps 744 mmHg 97%
    05:00 +18°C° 0 mm 2 mps 744 mmHg 96%
    06:00 +19°C° 0.3 mm 2 mps 744 mmHg 93%
    07:00 +20°C° 0.3 mm 2 mps 744 mmHg 90%
    08:00 +23°C° 0.3 mm 2 mps 744 mmHg 87%
    09:00 +23°C° 0.1 mm 2 mps 745 mmHg 82%
    10:00 +24°C° 0.1 mm 2 mps 745 mmHg 77%
    11:00 +25°C° 0.1 mm 2 mps 745 mmHg 72%
    12:00 +25°C° 0.6 mm 2 mps 745 mmHg 72%
    13:00 +25°C° 0.6 mm 2 mps 745 mmHg 73%
    14:00 +26°C° 0.6 mm 2 mps 745 mmHg 74%
    15:00 +25°C° 0.4 mm 2 mps 745 mmHg 77%
    16:00 +24°C° 0.4 mm 2 mps 744 mmHg 80%
    17:00 +23°C° 0.4 mm 2 mps 744 mmHg 83%
    18:00 +21°C° 0.1 mm 2 mps 744 mmHg 87%
    19:00 +20°C° 0.1 mm 2 mps 744 mmHg 90%
    20:00 +18°C° 0.1 mm 2 mps 744 mmHg 94%
    21:00 +18°C° 0.2 mm 2 mps 744 mmHg 95%
    22:00 +18°C° 0.2 mm 2 mps 744 mmHg 95%
    23:00 +17°C° 0.2 mm 2 mps 744 mmHg 96%

    1 June, Saturday

    Time Temperature Precipitation Wind Pressure Humidity
    00:00 +17°C° 0.6 mm 2 mps 744 mmHg 97%
    01:00 +17°C° 0.6 mm 2 mps 744 mmHg 97%
    02:00 +17°C° 0.6 mm 2 mps 744 mmHg 98%
    03:00 +17°C° 0.6 mm 2 mps 744 mmHg 98%
    04:00 +17°C° 0.6 mm 2 mps 743 mmHg 98%
    05:00 +18°C° 0.6 mm 2 mps 743 mmHg 98%
    06:00 +20°C° 0.1 mm 1 mps 743 mmHg 95%
    07:00 +21°C° 0.1 mm 1 mps 743 mmHg 92%
    08:00 +23°C° 0.1 mm 1 mps 743 mmHg 89%
    09:00 +24°C° 0.8 mm 1 mps 743 mmHg 81%
    10:00 +25°C° 0.8 mm 1 mps 743 mmHg 74%
    11:00 +26°C° 0.8 mm 2 mps 743 mmHg 66%
    12:00 +26°C° 0.8 mm 1 mps 743 mmHg 67%
    13:00 +26°C° 0.8 mm 1 mps 743 mmHg 67%
    14:00 +26°C° 0.8 mm 1 mps 742 mmHg 68%
    15:00 +26°C° 0.2 mm 1 mps 742 mmHg 70%
    16:00 +26°C° 0.2 mm 1 mps 742 mmHg 72%
    17:00 +25°C° 0.2 mm 1 mps 742 mmHg 74%
    18:00 +24°C° 0.7 mm 1 mps 742 mmHg 79%
    19:00 +22°C° 0.7 mm 1 mps 742 mmHg 85%
    20:00 +21°C° 0.7 mm 1 mps 742 mmHg 90%
    21:00 +20°C° 0.6 mm 1 mps 742 mmHg 92%
    22:00 +20°C° 0.6 mm 1 mps 742 mmHg 93%
    23:00 +19°C° 0.6 mm 1 mps 742 mmHg 94%
    Show more